Weather History for Andover, NJ

Change the Weather History Date:

Saturday, November 16, 2013

  Actual Average (KFWN) Record (KFWN)
Temperature  
Mean Temperature 48 °F -  
Max Temperature 60 °F 49 °F 72 °F (1973)
Min Temperature 37 °F 29 °F 12 °F (1967)
Degree Days  
Heating Degree Days 16    
Moisture  
Dew Point 37 °F    
Average Humidity 73    
Maximum Humidity 93    
Minimum Humidity 44    
Precipitation  
Precipitation 0.01 in - - ()
Sea Level Pressure  
Sea Level Pressure 30.29 in    
Wind  
Wind Speed 1 mph (SW)    
Max Wind Speed 5 mph    
Max Gust Speed -    
Averages and records for this station are not official NWS values.
T = Trace of Precipitation, MM = Missing Value Source: NWS Daily Summary

Daily Weather History Graph

Daily Weather History Graph

Search for Another Location

Airport:

Trip Planner

Search our weather history database for the weather conditions in past years. The results will help you decide how hot, cold, wet, or windy it might be!

Date:

Astronomy

Nov. 16, 2013 Rise Set
Actual Time 6:47 AM EST 4:39 PM EST
Civil Twilight 6:18 AM EST 5:08 PM EST
Nautical Twilight 5:44 AM EST 5:42 PM EST
Astronomical Twilight 5:12 AM EST 6:14 PM EST
Moon 4:13 PM EST (11/16) 5:41 AM EST (11/16)
Length of Visible Light 10h 50m
Length of Day
9h 51m
Waxing Gibbous, 99% of the Moon is Illuminated
Nov 16
Waxing Gibbous
Nov 17
Full
Nov 25
Last Quarter
Dec 2
New
Dec 9
First Quarter

Hourly Weather History & Observations

Time (EST) Temp. Windchill Dew Point Humidity Pressure Visibility Wind Dir Wind Speed Gust Speed Precip Events Conditions
12:54 AM 37.0 °F 34.5 °F 30.0 °F 76% 30.26 in - SW 3.5 mph - N/A   Unknown
1:54 AM 37.9 °F - 30.0 °F 73% 30.28 in - Calm Calm - N/A   Unknown
2:54 AM 42.1 °F 40.2 °F 28.0 °F 58% 30.27 in - Variable 3.5 mph - N/A   Unknown
3:54 AM 39.9 °F - 34.0 °F 79% 30.27 in - Calm Calm - N/A   Unknown
4:54 AM 39.0 °F - 36.0 °F 89% 30.28 in - Calm Calm - 0.01 in   Unknown
5:54 AM 39.0 °F - 37.0 °F 93% 30.29 in - Calm Calm - N/A   Unknown
6:54 AM 39.9 °F - 37.0 °F 89% 30.28 in - Calm Calm - N/A   Unknown
7:54 AM 39.0 °F - 36.0 °F 89% 30.33 in - Calm Calm - N/A   Unknown
8:54 AM 45.0 °F - 39.9 °F 82% 30.34 in - Calm Calm - N/A   Unknown
9:54 AM 50.0 °F - 39.0 °F 66% 30.35 in - Calm Calm - N/A   Unknown
10:54 AM 53.1 °F - 39.0 °F 59% 30.34 in - Variable 3.5 mph - N/A   Unknown
11:54 AM 57.0 °F - 37.9 °F 49% 30.30 in - Calm Calm - N/A   Unknown
12:54 PM 59.0 °F - 37.9 °F 46% 30.29 in - Variable 3.5 mph - N/A   Unknown
1:54 PM 60.1 °F - 37.9 °F 44% 30.28 in - WSW 4.6 mph - N/A   Unknown
2:54 PM 60.1 °F - 37.9 °F 44% 30.27 in - Variable 3.5 mph - N/A   Unknown
3:54 PM 57.9 °F - 39.0 °F 49% 30.27 in - Calm Calm - N/A   Unknown
4:54 PM 51.1 °F - 39.9 °F 66% 30.28 in - South 3.5 mph - N/A   Unknown
5:54 PM 46.0 °F - 39.0 °F 76% 30.30 in - Calm Calm - N/A   Unknown
6:54 PM 46.0 °F - 39.0 °F 76% 30.31 in - Calm Calm - N/A   Unknown
7:54 PM 41.0 °F - 37.9 °F 89% 30.31 in - Calm Calm - N/A   Unknown
8:54 PM 39.9 °F - 37.0 °F 89% 30.31 in - Calm Calm - N/A   Unknown
9:54 PM 45.0 °F - 43.0 °F 93% 30.30 in - Calm Calm - N/A   Unknown
10:54 PM 46.0 °F - 43.0 °F 89% 30.29 in - Calm Calm - N/A   Unknown
11:54 PM 46.0 °F - 43.0 °F 89% 30.27 in - Calm Calm - N/A   Unknown